Southport Middle School FL US WEATHERSTEM current weather conditions

sailwx.info

Wind from 228 at 3 knots gusting 4

Air temperature 26.7° C
Dewpoint -33.8° C

Last reported at 2020-Sep-18 09:00 UTC.
Time now 2020-Sep-18 09:48 UTC

Location: N 27°16' W 080°18'.
View on Google Maps.

See reports from other nearby stations

  
Tides and Currents Weather Stations Pressure Air Temp Water Temp Dewpoint Dewpoint Depression Visibility Wind Speed Wind Dir Waves Ship Positions
date/time (UTC)wind fromknots sea level pressurealtimeterstation pressurevisibilityair tempwater tempwave heightnotes
2020-Sep-18 09:00 228 3 gusting 4 26.7
2020-Sep-18 08:50 228 2 gusting 3 26.7
2020-Sep-18 08:40 228 1 gusting 5 26.8
2020-Sep-18 08:30 226 1 gusting 4 26.8
2020-Sep-18 08:20 226 2 gusting 4 26.8
2020-Sep-18 08:10 227 1 gusting 4 26.9
2020-Sep-18 08:00 227 2 gusting 3 26.9
2020-Sep-18 07:50 227 2 gusting 3 26.9
2020-Sep-18 07:40 227 1 gusting 3 26.9
2020-Sep-18 07:30 227 3 gusting 4 27.0
2020-Sep-18 07:10 227 1 gusting 3 27.1
2020-Sep-18 07:00 228 0 gusting 3 27.2
2020-Sep-18 06:50 229 1 gusting 4 27.2
2020-Sep-18 06:40 229 4 gusting 4 27.3
2020-Sep-18 06:30 229 2 gusting 4 27.3
2020-Sep-18 06:20 229 1 gusting 4 27.3
2020-Sep-18 06:10 230 1 gusting 4 27.3
2020-Sep-18 06:00 231 0 gusting 4 27.4
2020-Sep-18 05:50 231 3 gusting 4 27.5
2020-Sep-18 05:40 232 1 gusting 3 27.6
2020-Sep-18 05:30 232 1 gusting 4 27.7
2020-Sep-18 05:20 236 3 gusting 4 27.7
2020-Sep-18 05:10 240 0 gusting 2 27.8
2020-Sep-18 05:00 240 0 gusting 3 27.9
2020-Sep-18 04:50 240 0 gusting 2 28.0
2020-Sep-18 04:40 240 0 gusting 2 28.1
2020-Sep-18 04:30 240 1 gusting 3 28.1
2020-Sep-18 04:20 240 0 gusting 3 28.2
2020-Sep-18 04:10 241 1 gusting 3 28.2
2020-Sep-18 03:50 244 1 gusting 4 28.3
2020-Sep-18 03:40 225 3 gusting 5 28.4
2020-Sep-18 03:30 219 1 gusting 3 28.4
2020-Sep-18 03:20 219 0 gusting 4 28.4
2020-Sep-18 03:10 194 1 gusting 4 28.4
2020-Sep-18 03:00 194 1 gusting 4 28.4
2020-Sep-18 02:50 193 1 gusting 6 28.4
2020-Sep-18 02:40 201 2 gusting 4 28.5
2020-Sep-18 02:30 219 0 gusting 4 28.6
2020-Sep-18 02:10 205 0 gusting 3 28.6
2020-Sep-18 02:00 206 1 gusting 3 28.7
2020-Sep-18 01:50 28.7
2020-Sep-18 01:40 209 0 gusting 4 28.8
2020-Sep-18 01:30 211 0 gusting 3 28.9
2020-Sep-18 01:20 205 0 gusting 3 28.9
2020-Sep-18 01:10 205 0 gusting 3 29.1
2020-Sep-18 01:00 205 0 gusting 3 29.2
2020-Sep-18 00:50 205 0 gusting 4 29.4
2020-Sep-18 00:40 227 1 gusting 3 29.6
2020-Sep-18 00:30 203 1 gusting 3 29.7
2020-Sep-18 00:20 167 3 gusting 4 30.0
2020-Sep-18 00:10 210 2 gusting 5 30.2
2020-Sep-18 00:00 234 1 gusting 6 30.4
2020-Sep-17 23:50 223 4 gusting 5 30.7
2020-Sep-17 23:40 226 1 gusting 5 31.0
2020-Sep-17 23:30 31.2
2020-Sep-17 23:20 227 3 gusting 6 31.3
2020-Sep-17 23:10 236 1 gusting 7 31.5
2020-Sep-17 23:00 220 3 gusting 6 31.7
2020-Sep-17 22:50 240 4 gusting 6 31.9
2020-Sep-17 22:40 263 1 gusting 6 32.1
2020-Sep-17 22:30 259 1 gusting 6 32.3
2020-Sep-17 22:20 281 5 gusting 7 32.3
2020-Sep-17 22:10 236 3 gusting 6 32.3
2020-Sep-17 22:00 293 2 gusting 6 32.8
2020-Sep-17 21:50 248 6 gusting 7 33.2
2020-Sep-17 21:40 279 5 gusting 6 33.4
2020-Sep-17 21:30 227 6 gusting 10 33.9
2020-Sep-17 21:20 236 3 gusting 7 33.9
2020-Sep-17 21:10 229 6 gusting 6 33.9
2020-Sep-17 21:00 217 3 gusting 8 33.7
2020-Sep-17 20:50 246 3 gusting 8 33.6
2020-Sep-17 20:40 203 5 gusting 9 33.7
2020-Sep-17 20:30 225 5 gusting 12 33.9
2020-Sep-17 20:20 232 5 gusting 9 33.9
2020-Sep-17 20:10 217 3 gusting 7 34.2
2020-Sep-17 20:00 232 2 gusting 11 34.0
2020-Sep-17 19:50 173 8 gusting 9 34.1
2020-Sep-17 19:40 210 6 gusting 9 34.2
2020-Sep-17 19:30 183 2 gusting 8 34.0
2020-Sep-17 19:20 211 2 gusting 12 33.8
2020-Sep-17 19:10 225 3 gusting 13 34.0
2020-Sep-17 19:00 142 7 gusting 12 33.9
2020-Sep-17 18:50 217 6 gusting 9 34.1
2020-Sep-17 18:40 248 8 gusting 12 34.2
2020-Sep-17 18:30 200 6 gusting 9 34.5
2020-Sep-17 18:20 206 3 gusting 8 34.7
2020-Sep-17 18:10 161 7 gusting 9 34.5
2020-Sep-17 18:00 194 4 gusting 8 34.7
2020-Sep-17 17:50 238 6 gusting 12 34.3
2020-Sep-17 17:40 231 6 gusting 12 34.3
2020-Sep-17 17:30 229 4 gusting 10 34.0
2020-Sep-17 17:20 234 2 gusting 13 33.8
2020-Sep-17 17:10 198 7 gusting 10 34.1
2020-Sep-17 17:00 181 4 gusting 8 34.1
2020-Sep-17 16:50 242 5 gusting 8 33.8
2020-Sep-17 16:40 221 4 gusting 11 33.2
2020-Sep-17 16:30 234 7 gusting 9 33.3
2020-Sep-17 16:20 206 4 gusting 10 33.2
2020-Sep-17 16:10 195 4 gusting 8 32.8
2020-Sep-17 16:00 236 11 gusting 11 32.7
2020-Sep-17 15:50 223 6 gusting 8 32.3
2020-Sep-17 15:40 251 6 gusting 10 32.1
2020-Sep-17 15:30 234 8 gusting 11 31.8
2020-Sep-17 15:20 198 5 gusting 7 32.3
2020-Sep-17 15:10 229 4 gusting 7 32.2
2020-Sep-17 15:00 188 2 gusting 6 32.2
2020-Sep-17 14:50 180 5 gusting 9 31.9
2020-Sep-17 14:30 184 2 gusting 9 31.2
2020-Sep-17 14:20 161 5 gusting 9 30.8
2020-Sep-17 14:10 223 2 gusting 10 30.2
2020-Sep-17 14:00 213 2 gusting 8 29.8
2020-Sep-17 13:50 248 4 gusting 7 29.6
2020-Sep-17 13:30 173 2 gusting 6 28.9
2020-Sep-17 13:20 183 3 gusting 6 28.7
2020-Sep-17 13:10 194 3 gusting 4 28.3
2020-Sep-17 13:00 200 2 gusting 5 27.7
2020-Sep-17 12:50 179 3 gusting 5 27.2
2020-Sep-17 12:30 186 1 gusting 3 26.4
2020-Sep-17 12:20 190 2 gusting 3 26.2
2020-Sep-17 12:10 188 1 gusting 3 26.0
2020-Sep-17 12:00 190 1 gusting 3 25.9
2020-Sep-17 11:50 190 0 gusting 2 25.8
2020-Sep-17 11:30 190 0 gusting 2 25.8
2020-Sep-17 11:20 190 0 gusting 1 25.8
2020-Sep-17 11:10 25.8
2020-Sep-17 11:00 190 1 gusting 1 25.8
2020-Sep-17 10:50 190 1 gusting 2 25.9
2020-Sep-17 10:30 190 0 gusting 2 26.1
2020-Sep-17 10:20 190 1 gusting 2 26.1
2020-Sep-17 10:10 190 2 gusting 3 26.1
2020-Sep-17 10:00 190 0 gusting 2 26.1
2020-Sep-17 09:50 190 1 gusting 4 26.2
2020-Sep-17 09:30 192 1 gusting 3 26.2
2020-Sep-17 09:20 193 0 gusting 4 26.2
2020-Sep-17 09:00 205 2 gusting 3 26.2
2020-Sep-17 08:50 203 0 gusting 6 26.1
2020-Sep-17 08:30 178 0 gusting 3 25.9
2020-Sep-17 08:20 176 4 gusting 4 25.9
2020-Sep-17 08:10 177 0 gusting 3 25.8
2020-Sep-17 08:00 176 0 gusting 2 25.8
2020-Sep-17 07:50 178 1 gusting 3 25.8
2020-Sep-17 07:30 176 0 gusting 2 25.7
2020-Sep-17 07:20 176 1 gusting 3 25.7
2020-Sep-17 07:10 188 2 gusting 3 25.8
2020-Sep-17 07:00 202 0 gusting 3 25.9
2020-Sep-17 06:50 205 0 gusting 3 25.9
2020-Sep-17 06:30 206 1 gusting 4 25.8
2020-Sep-17 06:20 236 1 gusting 2 25.8
2020-Sep-17 06:10 25.9
2020-Sep-17 06:00 25.9
2020-Sep-17 05:50 257 0 gusting 1 25.9
2020-Sep-17 05:30 25.8
2020-Sep-17 05:10 257 0 gusting 0 25.7
2020-Sep-17 05:00 25.6
2020-Sep-17 04:50 25.6
2020-Sep-17 04:30 25.6
2020-Sep-17 04:20 25.6
2020-Sep-17 04:10 25.7
2020-Sep-17 03:50 25.7
2020-Sep-17 03:30 25.7
2020-Sep-17 03:20 25.7
2020-Sep-17 03:10 25.8
2020-Sep-17 03:00 25.8
2020-Sep-17 02:50 25.9
2020-Sep-17 02:30 25.9
2020-Sep-17 02:20 25.8
2020-Sep-17 02:10 25.8
2020-Sep-17 02:00 25.9
2020-Sep-17 01:50 25.9
2020-Sep-17 01:30 257 26.0
2020-Sep-17 01:10 249 1 gusting 1 26.4
2020-Sep-17 01:00 26.4
2020-Sep-17 00:40 244 1 gusting 4 26.6
2020-Sep-17 00:30 240 2 gusting 4 26.6
2020-Sep-17 00:20 248 3 gusting 6 26.9
2020-Sep-17 00:10 26.9
2020-Sep-17 00:00 26.8
2020-Sep-16 23:40 26.6
2020-Sep-16 23:30 26.7
2020-Sep-16 23:20 26.6
2020-Sep-16 23:10 26.7
2020-Sep-16 23:00 26.7
2020-Sep-16 22:50 26.6
2020-Sep-16 22:30 202 0 gusting 0 26.3
2020-Sep-16 22:20 202 0 gusting 2 26.1
2020-Sep-16 22:00 211 4 gusting 6 26.8
2020-Sep-16 21:50 013 1 gusting 5 26.9
2020-Sep-16 21:30 285 1 gusting 6 27.8
2020-Sep-16 21:20 329 3 gusting 7 28.4
2020-Sep-16 21:10 345 6 gusting 6 29.1
2020-Sep-16 21:00 240 2 gusting 5 29.6
2020-Sep-16 20:50 136 1 gusting 7 29.6
2020-Sep-16 20:30 106 1 gusting 8 30.3
2020-Sep-16 20:20 180 2 gusting 7 30.8
2020-Sep-16 20:10 044 2 gusting 10 30.6
2020-Sep-16 20:00 084 1 gusting 11 30.3
2020-Sep-16 19:50 113 2 gusting 9 30.1
2020-Sep-16 19:40 144 3 gusting 7 28.9
2020-Sep-16 19:30 103 1 gusting 2 28.8
2020-Sep-16 19:20 117 0 gusting 3 28.7
2020-Sep-16 19:10 138 3 gusting 6 29.4
2020-Sep-16 19:00 087 0 gusting 4 30.2
2020-Sep-16 18:50 109 1 gusting 8 31.2
2020-Sep-16 18:40 157 1 gusting 9 32.6
2020-Sep-16 18:30 126 2 gusting 8 32.6
2020-Sep-16 18:20 098 1 gusting 9 31.6
2020-Sep-16 18:10 108 1 gusting 6 31.9
2020-Sep-16 18:00 121 2 gusting 6 32.5
2020-Sep-16 17:50 345 1 gusting 7 33.1
2020-Sep-16 17:40 146 2 gusting 11 34.7
2020-Sep-16 17:30 082 2 gusting 11 34.5
2020-Sep-16 17:20 187 1 gusting 8 34.2
2020-Sep-16 17:10 146 3 gusting 11 33.9
2020-Sep-16 17:00 106 1 gusting 8 34.6
2020-Sep-16 16:50 116 1 gusting 6 33.9
2020-Sep-16 16:40 100 6 gusting 7 33.7
2020-Sep-16 16:30 101 2 gusting 7 33.4
2020-Sep-16 16:20 147 2 gusting 6 34.1
2020-Sep-16 16:10 170 0 gusting 8 34.1
2020-Sep-16 16:00 148 3 gusting 8 33.8
2020-Sep-16 15:40 153 0 gusting 8 33.7
2020-Sep-16 15:30 230 1 gusting 7 33.1
2020-Sep-16 15:20 150 2 gusting 6 33.6
2020-Sep-16 15:10 174 0 gusting 8 33.0
2020-Sep-16 15:00 192 2 gusting 6 32.4
2020-Sep-16 14:50 157 2 gusting 6 31.7
2020-Sep-16 14:40 167 4 gusting 9 31.9
2020-Sep-16 14:20 199 3 gusting 7 31.6
2020-Sep-16 14:10 161 4 gusting 7 31.4
2020-Sep-16 14:00 183 1 gusting 7 31.6
2020-Sep-16 13:50 31.2
2020-Sep-16 13:40 165 3 gusting 6 30.3
2020-Sep-16 13:30 165 5 gusting 6 29.9
2020-Sep-16 13:10 144 2 gusting 6 29.3
2020-Sep-16 13:00 178 2 gusting 5 28.8
2020-Sep-16 12:50 202 2 gusting 3 27.8
2020-Sep-16 12:40 180 2 gusting 3 27.1
2020-Sep-16 12:30 26.7
2020-Sep-16 12:20 26.4
2020-Sep-16 12:10 25.9
2020-Sep-16 11:50 25.6
2020-Sep-16 11:40 25.4
2020-Sep-16 11:30 25.4
2020-Sep-16 11:20 25.4
2020-Sep-16 11:10 25.3
2020-Sep-16 11:00 25.3
2020-Sep-16 10:50 25.4
2020-Sep-16 10:40 25.4
2020-Sep-16 10:30 25.5
2020-Sep-16 10:20 25.6
2020-Sep-16 10:10 25.6
2020-Sep-16 09:50 25.7
2020-Sep-16 09:40 25.8
2020-Sep-16 09:30 25.8
2020-Sep-16 09:20 25.8
2020-Sep-16 09:10 25.8
2020-Sep-16 09:00 25.9